Regional Weather Roundup
Issued by NWS Green Bay, WI

Home | Current Version | Previous Version | Text Only | Print | Product List | Glossary On
Versions: 1 2 3 4 5 6 7 8 9 10 11 12 13 14 15 16 17 18 19 20 21 22 23 24 25 26 27 28 29 30 31 32 33 34 35 36 37 38 39 40 41 42 43 44 45 46 47 48 49 50
000
ASUS43 KGRB 281800
RWRGRB

NORTH-CENTRAL AND NORTHEAST WISCONSIN REGIONAL WEATHER ROUNDUP
NATIONAL WEATHER SERVICE GREEN BAY WI
100 PM CDT TUE JUL 28 2015

WIZ005-009-010>012-018-019-281900-
NORTH CENTRAL WISCONSIN

CITY           SKY/WX    TMP DP  RH WIND       PRES   REMARKS
IRONWOOD       CLOUDY    77  66  69 S15G22    29.80R
MANITOWISH WTR NOT AVBL
ARBOR VITAE    NOT AVBL
EAGLE RIVER    NOT AVBL
LAND O LAKES   NOT AVBL
RHINELANDER    CLOUDY    79  65  62 S14G21    29.92F
PHILLIPS       NOT AVBL
ANTIGO         NOT AVBL
TOMAHAWK       NOT AVBL
MERRILL        NOT AVBL
$$

WIZ013-073-281900-
NORTHEAST WISCONSIN

CITY           SKY/WX    TMP DP  RH WIND       PRES   REMARKS
IRON MOUNTAIN  CLOUDY    81  64  56 SE13G20   29.94F
MARINETTE      CLOUDY    82  64  54 S9G17     29.96F
$$

WIZ017-030-035>037-045-281900-
CENTRAL WISCONSIN

CITY           SKY/WX    TMP DP  RH WIND       PRES   REMARKS
MEDFORD        NOT AVBL
WAUSAU         CLOUDY    81  66  60 S14       29.89F
MOSINEE        PTSUNNY   77  68  73 S12       29.92F
MARSHFIELD     CLOUDY    77  68  73 S13G26    29.88F
WISC RAPIDS    CLOUDY    77  66  68 S16G23    29.88F
STEVENS POINT  NOT AVBL
WAUPACA        NOT AVBL
SHAWANO        NOT AVBL
CLINTONVILLE   NOT AVBL
$$

WIZ038-039-048-051-281900-
FOX VALLEY

CITY           SKY/WX    TMP DP  RH WIND       PRES   REMARKS
NWS GREEN BAY  CLOUDY    84  65  52 S10       29.95F
APPLETON       PTSUNNY   84  61  45 S10       29.97F
OSHKOSH        CLOUDY    86  65  49 S16       29.95F
FOND DU LAC    PTSUNNY   86  65  49 S12       29.96F
$$

WIZ022-050-052-281900-
EAST CENTRAL WISCONSIN

CITY           SKY/WX    TMP DP  RH WIND       PRES   REMARKS
STURGEON BAY   CLOUDY    84  63  48 S13G22    30.00F
MANITOWOC      NOT AVBL
SHEBOYGAN      PTSUNNY   82  65  56 S10       29.98F
$$

LMZ563-521-522-541>543-281900-
LAKESHORE

STATION/POSITION TIME  TEMP    WIND        PRES    VSBY  WAVE
                       AIR SEA DIR/SP/G                  HT/PER
                 (UTC) (F)     (DEG/KT/KT) (MB)    (MI)  (FT/S)
SHEBOYGAN LKSHOR 1700   72     140/ 11/ 12 1016.4F
KEWAUNEE LKSHORE 1700   68     170/  6/  9 1015.7F
ALGOMA MARINA    1727          210/  5/  6   N/A
NORTHPORT PIER   1700   75     140/  8/ 11 1015.9S
N MID LAKE BUOY  1650   72 71  220/  6/  8 1016.2R         0
S GREEN BAY BUOY 1700   79 76  200/  8/ 10 1017.1F
CHAMBERS ISLAND  1700   81     180/  4/  9 1015.6F
MENOMINEE LKSHOR 1700   80     170/  8/ 10 1016.3F
$$


USA.gov is the U.S. government's official web portal to all federal, state and local government web resources and services.